| time (UTC) | temp F | wind direction | speed MPH | gust MPH | rain 1hr in | rain 24hr in | rain mn in | humidity % | barometer mb |
| 20260506134035 | 67 | 124 | 0.0 | 4.0 | 0.00 | 0.00 | 0.00 | 71 | 1008.3 |
| 20260506133533 | 67 | 340 | 0.0 | 3.0 | 0.00 | 0.00 | 0.00 | 71 | 1008.0 |
| 20260506133030 | 67 | 144 | 3.0 | 4.0 | 0.00 | 0.00 | 0.00 | 70 | 1008.0 |
| 20260506132527 | 67 | 50 | 3.0 | 3.0 | 0.00 | 0.00 | 0.00 | 71 | 1008.0 |
| 20260506132024 | 67 | 103 | 1.0 | 3.0 | 0.00 | 0.00 | 0.00 | 71 | 1008.0 |
| 20260506131521 | 67 | 57 | 2.0 | 4.0 | 0.00 | 0.00 | 0.00 | 71 | 1008.0 |
| 20260506131018 | 67 | 189 | 3.0 | 3.0 | 0.00 | 0.00 | 0.00 | 71 | 1007.8 |
| 20260506130514 | 67 | 121 | 3.0 | 5.0 | 0.00 | 0.00 | 0.00 | 70 | 1007.8 |
| 20260506130012 | 67 | 99 | 3.0 | 3.0 | 0.00 | 0.00 | 0.00 | 71 | 1007.8 |
| 20260506125510 | 67 | 318 | 2.0 | 3.0 | 0.00 | 0.00 | 0.00 | 71 | 1007.7 |
| 20260506125008 | 67 | 166 | 3.0 | 5.0 | 0.00 | 0.00 | 0.00 | 70 | 1007.8 |
| 20260506124505 | 66 | 101 | 1.0 | 4.0 | 0.00 | 0.00 | 0.00 | 71 | 1007.8 |
| 20260506124003 | 66 | 85 | 2.0 | 5.0 | 0.00 | 0.00 | 0.00 | 71 | 1008.2 |
| 20260506123501 | 66 | 115 | 4.0 | 5.0 | 0.00 | 0.00 | 0.00 | 72 | 1007.4 |
| 20260506122958 | 66 | 64 | 3.0 | 5.0 | 0.00 | 0.00 | 0.00 | 71 | 1007.9 |
| 20260506122455 | 66 | 103 | 2.0 | 3.0 | 0.00 | 0.00 | 0.00 | 72 | 1008.0 |
| 20260506121953 | 66 | 109 | 2.0 | 5.0 | 0.00 | 0.00 | 0.00 | 72 | 1008.1 |
| 20260506121450 | 65 | 48 | 2.0 | 5.0 | 0.00 | 0.00 | 0.00 | 73 | 1008.3 |
| 20260506120947 | 65 | 108 | 3.0 | 5.0 | 0.00 | 0.00 | 0.00 | 73 | 1008.2 |
| 20260506120444 | 65 | 85 | 2.0 | 4.0 | 0.00 | 0.00 | 0.00 | 73 | 1008.0 |
| 20260506115941 | 65 | 47 | 1.0 | 4.0 | 0.00 | 0.00 | 0.00 | 73 | 1008.1 |
| 20260506115439 | 65 | 228 | 0.0 | 4.0 | 0.00 | 0.00 | 0.00 | 73 | 1008.5 |
| 20260506114938 | 65 | 109 | 1.0 | 3.0 | 0.00 | 0.00 | 0.00 | 72 | 1008.3 |
| 20260506114435 | 65 | 32 | 1.0 | 5.0 | 0.00 | 0.00 | 0.00 | 72 | 1008.2 |
| 20260506113933 | 65 | 94 | 2.0 | 6.0 | 0.00 | 0.00 | 0.00 | 72 | 1008.2 |
| 20260506113431 | 65 | 81 | 2.0 | 5.0 | 0.00 | 0.00 | 0.00 | 72 | 1008.0 |
| 20260506112927 | 65 | 111 | 0.0 | 3.0 | 0.00 | 0.00 | 0.00 | 72 | 1008.1 |
| 20260506112425 | 65 | 110 | 4.0 | 4.0 | 0.00 | 0.00 | 0.00 | 72 | 1008.0 |
| 20260506111922 | 65 | 224 | 2.0 | 3.0 | 0.00 | 0.00 | 0.00 | 72 | 1007.9 |
| 20260506111420 | 65 | 92 | 2.0 | 6.0 | 0.00 | 0.00 | 0.00 | 72 | 1008.0 |
| 20260506110916 | 64 | 102 | 2.0 | 3.0 | 0.00 | 0.00 | 0.00 | 73 | 1007.8 |
| 20260506110414 | 64 | 130 | 4.0 | 4.0 | 0.00 | 0.00 | 0.00 | 74 | 1007.9 |
| 20260506105911 | 64 | 317 | 0.0 | 3.0 | 0.00 | 0.00 | 0.00 | 73 | 1007.8 |
| 20260506105407 | 64 | 70 | 2.0 | 2.0 | 0.00 | 0.00 | 0.00 | 73 | 1007.8 |
| 20260506104904 | 64 | 82 | 1.0 | 3.0 | 0.00 | 0.00 | 0.00 | 73 | 1008.0 |
| 20260506104402 | 64 | 322 | 2.0 | 3.0 | 0.00 | 0.00 | 0.00 | 73 | 1007.8 |
| 20260506103900 | 64 | 68 | 2.0 | 3.0 | 0.00 | 0.00 | 0.00 | 73 | 1007.9 |
| 20260506103357 | 64 | 111 | 2.0 | 3.0 | 0.00 | 0.00 | 0.00 | 72 | 1007.7 |
| 20260506102854 | 64 | 115 | 2.0 | 4.0 | 0.00 | 0.00 | 0.00 | 73 | 1007.5 |
| 20260506102352 | 64 | 80 | 1.0 | 6.0 | 0.00 | 0.00 | 0.00 | 74 | 1007.7 |
| 20260506101849 | 64 | 138 | 0.0 | 6.0 | 0.00 | 0.00 | 0.00 | 74 | 1007.6 |
| 20260506101345 | 64 | 151 | 1.0 | 3.0 | 0.00 | 0.00 | 0.00 | 74 | 1007.7 |
| 20260506100843 | 64 | 124 | 1.0 | 3.0 | 0.00 | 0.00 | 0.00 | 74 | 1007.6 |
| 20260506100341 | 64 | 78 | 2.0 | 3.0 | 0.00 | 0.00 | 0.00 | 74 | 1007.8 |
| 20260506095839 | 64 | 137 | 2.0 | 4.0 | 0.00 | 0.00 | 0.00 | 74 | 1007.8 |
| 20260506095336 | 64 | 145 | 0.0 | 4.0 | 0.00 | 0.00 | 0.00 | 74 | 1007.5 |
| 20260506094833 | 64 | 102 | 2.0 | 3.0 | 0.00 | 0.00 | 0.00 | 74 | 1007.7 |
| 20260506094332 | 64 | 86 | 2.0 | 4.0 | 0.00 | 0.00 | 0.00 | 74 | 1007.7 |
| 20260506093830 | 64 | 26 | 1.0 | 3.0 | 0.00 | 0.00 | 0.00 | 74 | 1007.6 |
| 20260506093326 | 64 | 180 | 1.0 | 4.0 | 0.00 | 0.00 | 0.00 | 74 | 1007.7 |
| 20260506092824 | 64 | 122 | 2.0 | 4.0 | 0.00 | 0.00 | 0.00 | 75 | 1007.5 |
| 20260506092322 | 64 | 124 | 2.0 | 3.0 | 0.00 | 0.00 | 0.00 | 75 | 1007.7 |
| 20260506091818 | 64 | 94 | 2.0 | 5.0 | 0.00 | 0.00 | 0.00 | 75 | 1007.6 |
| 20260506091316 | 64 | 119 | 2.0 | 6.0 | 0.00 | 0.00 | 0.00 | 75 | 1007.6 |
| 20260506090814 | 64 | 147 | 2.0 | 4.0 | 0.00 | 0.00 | 0.00 | 75 | 1007.6 |
| 20260506090311 | 64 | 115 | 2.0 | 4.0 | 0.00 | 0.00 | 0.00 | 75 | 1007.6 |
| 20260506085807 | 64 | 105 | 2.0 | 4.0 | 0.00 | 0.00 | 0.00 | 75 | 1007.8 |
| 20260506085306 | 64 | 161 | 2.0 | 4.0 | 0.00 | 0.00 | 0.00 | 75 | 1007.5 |
| 20260506084800 | 64 | 125 | 2.0 | 4.0 | 0.00 | 0.00 | 0.00 | 75 | 1007.8 |
| 20260506084257 | 64 | 92 | 1.0 | 5.0 | 0.00 | 0.00 | 0.00 | 75 | 1007.9 |
| 20260506083754 | 65 | 112 | 3.0 | 4.0 | 0.00 | 0.00 | 0.00 | 75 | 1007.7 |
| 20260506083251 | 65 | 110 | 1.0 | 5.0 | 0.00 | 0.00 | 0.00 | 75 | 1007.9 |
| 20260506082749 | 65 | 98 | 3.0 | 5.0 | 0.00 | 0.00 | 0.00 | 75 | 1007.7 |
| 20260506082244 | 65 | 128 | 1.0 | 4.0 | 0.00 | 0.00 | 0.00 | 75 | 1007.6 |
| 20260506081742 | 65 | 115 | 6.0 | 7.0 | 0.00 | 0.00 | 0.00 | 75 | 1007.7 |
| 20260506081239 | 65 | 152 | 0.0 | 3.0 | 0.00 | 0.00 | 0.00 | 75 | 1007.8 |
| 20260506080737 | 65 | 124 | 2.0 | 4.0 | 0.00 | 0.00 | 0.00 | 75 | 1007.8 |
| 20260506080233 | 65 | 129 | 2.0 | 4.0 | 0.00 | 0.00 | 0.00 | 75 | 1007.8 |
| 20260506073217 | 66 | 87 | 3.0 | 5.0 | 0.00 | 0.00 | 0.00 | 74 | 1007.9 |
| 20260506072714 | 66 | 148 | 3.0 | 5.0 | 0.00 | 0.00 | 0.00 | 74 | 1007.9 |
| 20260506072212 | 66 | 357 | 2.0 | 4.0 | 0.00 | 0.00 | 0.00 | 74 | 1007.9 |
| 20260506071709 | 66 | 86 | 3.0 | 5.0 | 0.00 | 0.00 | 0.00 | 74 | 1007.9 |
| 20260506071207 | 66 | 85 | 1.0 | 5.0 | 0.00 | 0.00 | 0.00 | 74 | 1008.2 |
| 20260506070704 | 66 | 179 | 3.0 | 4.0 | 0.00 | 0.00 | 0.00 | 74 | 1008.1 |
| 20260506070201 | 66 | 257 | 0.0 | 3.0 | 0.00 | 0.00 | 0.00 | 74 | 1008.2 |
| 20260506062138 | 67 | 104 | 3.0 | 3.0 | 0.00 | 0.00 | 0.00 | 73 | 1008.1 |
| 20260506061633 | 67 | 106 | 2.0 | 4.0 | 0.00 | 0.00 | 0.00 | 72 | 1008.3 |
| 20260506061131 | 67 | 114 | 3.0 | 4.0 | 0.00 | 0.00 | 0.00 | 72 | 1008.3 |
| 20260506060630 | 67 | 113 | 2.0 | 5.0 | 0.00 | 0.00 | 0.00 | 72 | 1008.0 |
| 20260506060126 | 67 | 84 | 2.0 | 3.0 | 0.00 | 0.00 | 0.00 | 71 | 1008.2 |
| 20260506051058 | 69 | 35 | 2.0 | 4.0 | 0.00 | 0.00 | 0.00 | 69 | 1008.7 |
| 20260506050556 | 69 | 240 | 1.0 | 4.0 | 0.00 | 0.00 | 0.00 | 68 | 1008.7 |
| 20260506045046 | 69 | 120 | 2.0 | 4.0 | 0.00 | 0.00 | 0.00 | 67 | 1008.8 |
| 20260506044545 | 69 | 98 | 2.0 | 4.0 | 0.00 | 0.00 | 0.00 | 67 | 1008.9 |
| 20260506044041 | 69 | 82 | 2.0 | 3.0 | 0.00 | 0.00 | 0.00 | 66 | 1008.6 |
| 20260506043538 | 70 | 70 | 1.0 | 5.0 | 0.00 | 0.00 | 0.00 | 66 | 1008.7 |
| 20260506043037 | 70 | 227 | 1.0 | 4.0 | 0.00 | 0.00 | 0.00 | 65 | 1008.6 |
| 20260506042535 | 70 | 117 | 2.0 | 4.0 | 0.00 | 0.00 | 0.00 | 64 | 1008.6 |
| 20260506042033 | 70 | 207 | 0.0 | 4.0 | 0.00 | 0.00 | 0.00 | 64 | 1008.7 |
| 20260506041531 | 70 | 105 | 2.0 | 4.0 | 0.00 | 0.00 | 0.00 | 64 | 1008.5 |
| 20260506041028 | 70 | 83 | 2.0 | 2.0 | 0.00 | 0.00 | 0.00 | 63 | 1008.7 |
| 20260506040526 | 70 | 128 | 0.0 | 3.0 | 0.00 | 0.00 | 0.00 | 63 | 1008.7 |
| 20260506040021 | 70 | 96 | 1.0 | 2.0 | 0.00 | 0.00 | 0.00 | 62 | 1008.8 |
| 20260506035518 | 70 | 61 | 1.0 | 3.0 | 0.00 | 0.00 | 0.00 | 61 | 1008.7 |
| 20260506035015 | 70 | 12 | 0.0 | 3.0 | 0.00 | 0.00 | 0.00 | 62 | 1008.4 |
| 20260506034513 | 71 | 55 | 0.0 | 5.0 | 0.00 | 0.00 | 0.00 | 61 | 1008.5 |
| 20260506034009 | 71 | 108 | 2.0 | 3.0 | 0.00 | 0.00 | 0.00 | 60 | 1008.7 |
| 20260506033507 | 71 | 117 | 0.0 | 3.0 | 0.00 | 0.00 | 0.00 | 60 | 1008.8 |
| 20260506033004 | 71 | 39 | 2.0 | 3.0 | 0.00 | 0.00 | 0.00 | 59 | 1008.6 |
| 20260506032501 | 71 | 117 | 0.0 | 3.0 | 0.00 | 0.00 | 0.00 | 58 | 1008.8 |
| 20260506031957 | 71 | 94 | 3.0 | 3.0 | 0.00 | 0.00 | 0.00 | 57 | 1008.6 |
| 20260506031455 | 71 | 36 | 2.0 | 4.0 | 0.00 | 0.00 | 0.00 | 57 | 1008.5 |
| 20260506030952 | 71 | 106 | 2.0 | 3.0 | 0.00 | 0.00 | 0.00 | 57 | 1008.6 |
| 20260506030450 | 71 | 88 | 2.0 | 3.0 | 0.00 | 0.00 | 0.00 | 57 | 1008.6 |
| 20260506025947 | 71 | 34 | 0.0 | 3.0 | 0.00 | 0.00 | 0.00 | 56 | 1008.8 |
| 20260506025444 | 71 | 161 | 1.0 | 2.0 | 0.00 | 0.00 | 0.00 | 55 | 1008.6 |
| 20260506024940 | 72 | 57 | 2.0 | 4.0 | 0.00 | 0.00 | 0.00 | 55 | 1008.9 |
| 20260506024437 | 72 | 111 | 3.0 | 4.0 | 0.00 | 0.00 | 0.00 | 55 | 1008.8 |
| 20260506023933 | 72 | 105 | 0.0 | 2.0 | 0.00 | 0.00 | 0.00 | 54 | 1008.8 |
| 20260506023430 | 72 | 143 | 2.0 | 3.0 | 0.00 | 0.00 | 0.00 | 54 | 1008.9 |
| 20260506022926 | 72 | 207 | 2.0 | 3.0 | 0.00 | 0.00 | 0.00 | 54 | 1008.7 |
| 20260506022424 | 72 | 89 | 0.0 | 2.0 | 0.00 | 0.00 | 0.00 | 53 | 1008.7 |
| 20260506021922 | 72 | 132 | 0.0 | 1.0 | 0.00 | 0.00 | 0.00 | 53 | 1009.2 |
| 20260506021419 | 73 | 89 | 0.0 | 2.0 | 0.00 | 0.00 | 0.00 | 52 | 1008.9 |
| 20260506020916 | 73 | 122 | 0.0 | 2.0 | 0.00 | 0.00 | 0.00 | 51 | 1008.8 |
| 20260506020414 | 73 | 128 | 0.0 | 2.0 | 0.00 | 0.00 | 0.00 | 51 | 1008.4 |
| 20260506015911 | 73 | 89 | 0.0 | 2.0 | 0.00 | 0.00 | 0.00 | 51 | 1008.7 |
| 20260506015408 | 73 | 209 | 3.0 | 3.0 | 0.00 | 0.00 | 0.00 | 50 | 1008.8 |
| 20260506014905 | 73 | 265 | 3.0 | 3.0 | 0.00 | 0.00 | 0.00 | 50 | 1008.6 |
| 20260506014402 | 73 | 102 | 1.0 | 3.0 | 0.00 | 0.00 | 0.00 | 50 | 1008.7 |
| 20260506013859 | 73 | 133 | 3.0 | 3.0 | 0.00 | 0.00 | 0.00 | 49 | 1008.5 |
| 20260506013357 | 73 | 89 | 0.0 | 1.0 | 0.00 | 0.00 | 0.00 | 49 | 1008.5 |
| 20260506012852 | 73 | 72 | 1.0 | 2.0 | 0.00 | 0.00 | 0.00 | 49 | 1008.5 |
| 20260506012349 | 74 | 95 | 1.0 | 3.0 | 0.00 | 0.00 | 0.00 | 48 | 1008.5 |
| 20260506011846 | 74 | 256 | 2.0 | 2.0 | 0.00 | 0.00 | 0.00 | 49 | 1008.2 |
| 20260506011343 | 74 | 117 | 2.0 | 2.0 | 0.00 | 0.00 | 0.00 | 48 | 1008.5 |
| 20260506010840 | 74 | 116 | 0.0 | 1.0 | 0.00 | 0.00 | 0.00 | 48 | 1008.1 |
| 20260506010339 | 74 | 89 | 0.0 | 2.0 | 0.00 | 0.00 | 0.00 | 48 | 1008.1 |
| 20260506005835 | 75 | 41 | 1.0 | 2.0 | 0.00 | 0.00 | 0.00 | 47 | 1008.0 |
| 20260506005332 | 74 | 113 | 5.0 | 5.0 | 0.00 | 0.00 | 0.00 | 47 | 1008.1 |
| 20260506004828 | 75 | 114 | 0.0 | 3.0 | 0.00 | 0.00 | 0.00 | 47 | 1007.9 |
| 20260506004326 | 75 | 89 | 0.0 | 3.0 | 0.00 | 0.00 | 0.00 | 46 | 1008.0 |
| 20260506003822 | 75 | 211 | 3.0 | 3.0 | 0.00 | 0.00 | 0.00 | 45 | 1008.0 |
| 20260506003318 | 75 | 355 | 1.0 | 4.0 | 0.00 | 0.00 | 0.00 | 45 | 1007.7 |
| 20260506002814 | 75 | 122 | 0.0 | 5.0 | 0.00 | 0.00 | 0.00 | 44 | 1007.9 |
| 20260506002311 | 76 | 160 | 0.0 | 3.0 | 0.00 | 0.00 | 0.00 | 44 | 1007.8 |
| 20260506001807 | 76 | 115 | 2.0 | 3.0 | 0.00 | 0.00 | 0.00 | 43 | 1007.7 |
| 20260506001304 | 76 | 79 | 2.0 | 2.0 | 0.00 | 0.00 | 0.00 | 42 | 1007.8 |
| 20260506000801 | 77 | 255 | 0.0 | 3.0 | 0.00 | 0.00 | 0.00 | 42 | 1007.7 |
| 20260506000259 | 77 | 198 | 0.0 | 2.0 | 0.00 | 0.00 | 0.00 | 41 | 1007.5 |
| 20260505235755 | 77 | 128 | 1.0 | 3.0 | 0.00 | 0.00 | 0.00 | 41 | 1007.5 |
| 20260505235253 | 77 | 27 | 2.0 | 3.0 | 0.00 | 0.00 | 0.00 | 41 | 1007.5 |
| 20260505234750 | 77 | 167 | 1.0 | 4.0 | 0.00 | 0.00 | 0.00 | 41 | 1007.4 |
| 20260505234247 | 77 | 210 | 0.0 | 3.0 | 0.00 | 0.00 | 0.00 | 41 | 1007.3 |
| 20260505233744 | 78 | 117 | 2.0 | 6.0 | 0.00 | 0.00 | 0.00 | 40 | 1007.3 |
| 20260505233242 | 78 | 209 | 1.0 | 3.0 | 0.00 | 0.00 | 0.00 | 40 | 1007.2 |
| 20260505232739 | 78 | 134 | 1.0 | 4.0 | 0.00 | 0.00 | 0.00 | 39 | 1007.1 |
| 20260505232236 | 78 | 147 | 2.0 | 3.0 | 0.00 | 0.00 | 0.00 | 39 | 1007.2 |
| 20260505231732 | 79 | 219 | 0.0 | 3.0 | 0.00 | 0.00 | 0.00 | 39 | 1007.2 |
| 20260505231232 | 79 | 260 | 0.0 | 3.0 | 0.00 | 0.00 | 0.00 | 40 | 1007.1 |
| 20260505230729 | 79 | 248 | 0.0 | 2.0 | 0.00 | 0.00 | 0.00 | 39 | 1007.0 |
| 20260505230226 | 79 | 288 | 1.0 | 4.0 | 0.00 | 0.00 | 0.00 | 38 | 1007.0 |
| 20260505225722 | 79 | 145 | 0.0 | 3.0 | 0.00 | 0.00 | 0.00 | 38 | 1007.1 |
| 20260505225220 | 79 | 106 | 1.0 | 5.0 | 0.00 | 0.00 | 0.00 | 38 | 1007.3 |
| 20260505224715 | 79 | 242 | 1.0 | 3.0 | 0.00 | 0.00 | 0.00 | 38 | 1006.8 |
| 20260505224213 | 79 | 166 | 0.0 | 3.0 | 0.00 | 0.00 | 0.00 | 37 | 1007.0 |
| 20260505223710 | 80 | 314 | 2.0 | 2.0 | 0.00 | 0.00 | 0.00 | 37 | 1007.0 |
| 20260505223206 | 80 | 193 | 1.0 | 4.0 | 0.00 | 0.00 | 0.00 | 37 | 1006.9 |
| 20260505222702 | 80 | 96 | 2.0 | 2.0 | 0.00 | 0.00 | 0.00 | 37 | 1007.0 |
| 20260505222158 | 80 | 172 | 0.0 | 3.0 | 0.00 | 0.00 | 0.00 | 36 | 1007.0 |
| 20260505221656 | 81 | 41 | 3.0 | 4.0 | 0.00 | 0.00 | 0.00 | 35 | 1007.1 |
| 20260505221152 | 80 | 73 | 2.0 | 7.0 | 0.00 | 0.00 | 0.00 | 36 | 1007.0 |
| 20260505220649 | 80 | 52 | 0.0 | 2.0 | 0.00 | 0.00 | 0.00 | 35 | 1006.8 |
| 20260505220147 | 81 | 132 | 3.0 | 3.0 | 0.00 | 0.00 | 0.00 | 35 | 1007.0 |
| 20260505215644 | 81 | 319 | 1.0 | 4.0 | 0.00 | 0.00 | 0.00 | 34 | 1007.0 |
| 20260505215142 | 81 | 119 | 0.0 | 5.0 | 0.00 | 0.00 | 0.00 | 35 | 1006.9 |
| 20260505214640 | 81 | 75 | 0.0 | 5.0 | 0.00 | 0.00 | 0.00 | 34 | 1006.7 |
| 20260505214137 | 81 | 183 | 2.0 | 8.0 | 0.00 | 0.00 | 0.00 | 34 | 1006.9 |
| 20260505213635 | 82 | 57 | 2.0 | 4.0 | 0.00 | 0.00 | 0.00 | 34 | 1007.0 |
| 20260505213131 | 82 | 195 | 2.0 | 6.0 | 0.00 | 0.00 | 0.00 | 33 | 1006.9 |
| 20260505212627 | 82 | 57 | 3.0 | 6.0 | 0.00 | 0.00 | 0.00 | 34 | 1006.8 |
| 20260505212125 | 82 | 0 | 0.0 | 4.0 | 0.00 | 0.00 | 0.00 | 33 | 1006.7 |
| 20260505211622 | 82 | 185 | 2.0 | 4.0 | 0.00 | 0.00 | 0.00 | 33 | 1007.0 |
| 20260505211120 | 82 | 59 | 3.0 | 5.0 | 0.00 | 0.00 | 0.00 | 34 | 1007.0 |
| 20260505210615 | 82 | 78 | 2.0 | 4.0 | 0.00 | 0.00 | 0.00 | 33 | 1006.6 |
| 20260505210112 | 83 | 148 | 2.0 | 5.0 | 0.00 | 0.00 | 0.00 | 34 | 1006.8 |
| 20260505205610 | 82 | 101 | 2.0 | 3.0 | 0.00 | 0.00 | 0.00 | 34 | 1006.9 |
| 20260505205107 | 82 | 217 | 1.0 | 5.0 | 0.00 | 0.00 | 0.00 | 33 | 1006.8 |
| 20260505204604 | 82 | 352 | 2.0 | 4.0 | 0.00 | 0.00 | 0.00 | 32 | 1006.9 |
| 20260505204102 | 82 | 70 | 1.0 | 6.0 | 0.00 | 0.00 | 0.00 | 31 | 1006.8 |
| 20260505203558 | 82 | 38 | 2.0 | 8.0 | 0.00 | 0.00 | 0.00 | 31 | 1006.8 |
| 20260505203056 | 84 | 98 | 3.0 | 4.0 | 0.00 | 0.00 | 0.00 | 32 | 1006.9 |
| 20260505202551 | 83 | 12 | 2.0 | 5.0 | 0.00 | 0.00 | 0.00 | 33 | 1006.9 |
| 20260505202047 | 84 | 15 | 2.0 | 4.0 | 0.00 | 0.00 | 0.00 | 33 | 1006.9 |
| 20260505201544 | 84 | 254 | 2.0 | 4.0 | 0.00 | 0.00 | 0.00 | 34 | 1007.0 |
| 20260505201042 | 84 | 293 | 1.0 | 2.0 | 0.00 | 0.00 | 0.00 | 34 | 1007.2 |
| 20260505200540 | 83 | 51 | 1.0 | 6.0 | 0.00 | 0.00 | 0.00 | 33 | 1007.4 |
| 20260505200036 | 83 | 120 | 2.0 | 6.0 | 0.00 | 0.00 | 0.00 | 33 | 1007.4 |
| 20260505195532 | 83 | 56 | 0.0 | 4.0 | 0.00 | 0.00 | 0.00 | 34 | 1007.4 |
| 20260505195030 | 84 | 63 | 1.0 | 5.0 | 0.00 | 0.00 | 0.00 | 34 | 1007.5 |
| 20260505194527 | 83 | 217 | 3.0 | 5.0 | 0.00 | 0.00 | 0.00 | 34 | 1007.4 |
| 20260505194022 | 83 | 306 | 2.0 | 6.0 | 0.00 | 0.00 | 0.00 | 35 | 1007.6 |
| 20260505193520 | 84 | 124 | 3.0 | 4.0 | 0.00 | 0.00 | 0.00 | 36 | 1007.9 |
| 20260505193017 | 83 | 266 | 1.0 | 4.0 | 0.00 | 0.00 | 0.00 | 35 | 1008.0 |
| 20260505192516 | 82 | 113 | 2.0 | 5.0 | 0.00 | 0.00 | 0.00 | 33 | 1007.9 |
| 20260505192013 | 83 | 272 | 1.0 | 4.0 | 0.00 | 0.00 | 0.00 | 35 | 1008.0 |
| 20260505191511 | 83 | 150 | 0.0 | 6.0 | 0.00 | 0.00 | 0.00 | 35 | 1008.0 |
| 20260505191009 | 84 | 174 | 0.0 | 2.0 | 0.00 | 0.00 | 0.00 | 36 | 1008.1 |
| 20260505190509 | 83 | 249 | 2.0 | 4.0 | 0.00 | 0.00 | 0.00 | 36 | 1008.2 |
| 20260505190004 | 82 | 200 | 3.0 | 3.0 | 0.00 | 0.00 | 0.00 | 36 | 1008.3 |
| 20260505185456 | 82 | 210 | 0.0 | 4.0 | 0.00 | 0.00 | 0.00 | 37 | 1008.2 |
| 20260505184952 | 82 | 101 | 3.0 | 5.0 | 0.00 | 0.00 | 0.00 | 37 | 1008.1 |
| 20260505184449 | 82 | 316 | 1.0 | 5.0 | 0.00 | 0.00 | 0.00 | 36 | 1008.6 |
| 20260505183945 | 82 | 146 | 3.0 | 6.0 | 0.00 | 0.00 | 0.00 | 37 | 1008.5 |
| 20260505183443 | 83 | 245 | 2.0 | 3.0 | 0.00 | 0.00 | 0.00 | 38 | 1008.4 |
| 20260505182939 | 82 | 306 | 3.0 | 5.0 | 0.00 | 0.00 | 0.00 | 38 | 1008.6 |
| 20260505182437 | 82 | 186 | 1.0 | 4.0 | 0.00 | 0.00 | 0.00 | 38 | 1008.6 |
| 20260505181932 | 83 | 8 | 2.0 | 5.0 | 0.00 | 0.00 | 0.00 | 36 | 1008.4 |
| 20260505181430 | 82 | 286 | 4.0 | 4.0 | 0.00 | 0.00 | 0.00 | 38 | 1008.5 |
| 20260505180927 | 82 | 189 | 3.0 | 6.0 | 0.00 | 0.00 | 0.00 | 38 | 1008.7 |
| 20260505180423 | 82 | 138 | 2.0 | 4.0 | 0.00 | 0.00 | 0.00 | 38 | 1008.6 |
| 20260505175920 | 81 | 109 | 2.0 | 3.0 | 0.00 | 0.00 | 0.00 | 39 | 1008.8 |
| 20260505175416 | 82 | 280 | 2.0 | 4.0 | 0.00 | 0.00 | 0.00 | 38 | 1008.6 |
| 20260505174913 | 81 | 296 | 1.0 | 5.0 | 0.00 | 0.00 | 0.00 | 40 | 1008.8 |
| 20260505174410 | 82 | 64 | 2.0 | 4.0 | 0.00 | 0.00 | 0.00 | 41 | 1008.8 |
| 20260505173906 | 82 | 142 | 2.0 | 3.0 | 0.00 | 0.00 | 0.00 | 40 | 1008.8 |
| 20260505173403 | 82 | 194 | 3.0 | 6.0 | 0.00 | 0.00 | 0.00 | 41 | 1008.8 |
| 20260505172900 | 81 | 5 | 1.0 | 2.0 | 0.00 | 0.00 | 0.00 | 42 | 1008.7 |
| 20260505172358 | 80 | 128 | 2.0 | 4.0 | 0.00 | 0.00 | 0.00 | 42 | 1008.9 |
| 20260505171857 | 80 | 130 | 4.0 | 4.0 | 0.00 | 0.00 | 0.00 | 42 | 1008.9 |
| 20260505171354 | 80 | 70 | 1.0 | 4.0 | 0.00 | 0.00 | 0.00 | 43 | 1009.1 |
| 20260505170851 | 79 | 213 | 4.0 | 5.0 | 0.00 | 0.00 | 0.00 | 43 | 1009.2 |
| 20260505170348 | 79 | 140 | 2.0 | 4.0 | 0.00 | 0.00 | 0.00 | 41 | 1009.3 |
| 20260505165843 | 79 | 141 | 3.0 | 4.0 | 0.00 | 0.00 | 0.00 | 41 | 1009.3 |
| 20260505165339 | 80 | 144 | 0.0 | 3.0 | 0.00 | 0.00 | 0.00 | 42 | 1009.3 |
| 20260505164835 | 79 | 173 | 0.0 | 3.0 | 0.00 | 0.00 | 0.00 | 43 | 1009.4 |
| 20260505164331 | 79 | 10 | 1.0 | 4.0 | 0.00 | 0.00 | 0.00 | 42 | 1009.5 |
| 20260505163830 | 79 | 37 | 0.0 | 2.0 | 0.00 | 0.00 | 0.00 | 42 | 1009.6 |
| 20260505163328 | 79 | 255 | 2.0 | 4.0 | 0.00 | 0.00 | 0.00 | 42 | 1009.6 |
| 20260505162827 | 78 | 135 | 1.0 | 5.0 | 0.00 | 0.00 | 0.00 | 43 | 1009.7 |
| 20260505162322 | 78 | 269 | 4.0 | 4.0 | 0.00 | 0.00 | 0.00 | 44 | 1009.9 |
| 20260505161819 | 78 | 106 | 0.0 | 5.0 | 0.00 | 0.00 | 0.00 | 43 | 1009.8 |
| 20260505161317 | 77 | 130 | 0.0 | 3.0 | 0.00 | 0.00 | 0.00 | 46 | 1009.7 |
| 20260505160814 | 77 | 343 | 2.0 | 4.0 | 0.00 | 0.00 | 0.00 | 45 | 1010.1 |
| 20260505160312 | 77 | 214 | 2.0 | 3.0 | 0.00 | 0.00 | 0.00 | 45 | 1010.2 |
| 20260505153250 | 76 | 356 | 1.0 | 3.0 | 0.00 | 0.00 | 0.00 | 50 | 1010.1 |
| 20260505152747 | 75 | 180 | 3.0 | 4.0 | 0.00 | 0.00 | 0.00 | 50 | 1010.0 |
| 20260505152244 | 75 | 191 | 0.0 | 3.0 | 0.00 | 0.00 | 0.00 | 50 | 1009.9 |
| 20260505151738 | 74 | 169 | 2.0 | 3.0 | 0.00 | 0.00 | 0.00 | 51 | 1010.1 |
| 20260505151236 | 74 | 92 | 2.0 | 4.0 | 0.00 | 0.00 | 0.00 | 49 | 1010.0 |
| 20260505150732 | 74 | 114 | 0.0 | 3.0 | 0.00 | 0.00 | 0.00 | 50 | 1009.9 |
| 20260505150229 | 75 | 203 | 0.0 | 2.0 | 0.00 | 0.00 | 0.00 | 52 | 1009.9 |
| 20260505140154 | 69 | 169 | 2.0 | 4.0 | 0.00 | 0.00 | 0.00 | 57 | 1009.9 |